Terminal Aerodrome Forecast
Issued by NWS Norman, OK

Home | Current Version | Previous Version | Text Only | Print | Product List | Glossary On
Versions: 1 2 3 4 5 6 7 8 9 10 11 12 13 14 15 16 17 18 19 20 21
000
FTUS44 KOUN 281120
TAFOKC
TAF
KOKC 281120Z 2812/2912 30004KT P6SM BKN250
     FM281600 18007KT P6SM SCT250
     FM290000 14007KT P6SM SCT250=

USA.gov is the U.S. government's official web portal to all federal, state and local government web resources and services.